Flag for U.S.A. Weather past 2 weeks in Aliso Viejo, California, U.S.A.

Now
75 °F

Sunny.


Feels Like: 78 °F
Forecast: 52 / 73 °F
Wind: 13 mph from South

Location: John Wayne Airport-Orange County Airport


UV Index: 7 (High)

Visibility: 10 mi


Pressure: 29.92 "Hg

Humidity: 42%

Dew point: 50 °F

Location of Aliso ViejoLocation

Historic Weather in Aliso Viejo

°F

Aliso Viejo temperature yesterday

Maximum temperature yesterday: 70 °F (at 1:53 PM)
Minimum temperature yesterday: 57 °F (at 5:53 AM)
Average temperature yesterday: 64 °F

Past Weeks' High & Low Weather Summary

 TemperatureHumidityPressure
High82 °F (Apr 9, 2:53 PM)94% (Apr 10, 3:03 AM)30.06 "Hg (Apr 10, 3:03 AM)
Low53 °F (Apr 10, 3:53 AM)26% (Apr 9, 2:53 PM)29.79 "Hg (Apr 16, 5:53 PM)
Average64 °F65%29.95 "Hg
* Reported Apr 9 2:53 PM — Apr 24 2:53 PM, Aliso Viejo, Weather by CustomWeather, © 2014

Note: Actual official high and low records may vary slightly from our data, if they occured in-between our weather recording intervals... More about our weather records

Advertising

Historic Weather Conditions — Data for Previous 24 hours

 ConditionsComfort  
Time TempWeatherWind HumidityBarometerVisibility
2:53 PM
Apr 24
75 °FSunny.13 mph42%29.92 "Hg10 mi
1:53 PM75 °FPassing clouds.12 mph42%29.93 "Hg10 mi
12:53 PM74 °FPassing clouds.10 mph41%29.95 "Hg10 mi
11:53 AM73 °FScattered clouds.7 mph43%29.98 "Hg10 mi
10:53 AM71 °FScattered clouds.6 mph49%29.99 "Hg10 mi
9:53 AM68 °FPassing clouds.3 mph57%29.99 "Hg10 mi
8:53 AM65 °FPassing clouds.No wind63%29.98 "Hg10 mi
7:53 AM63 °FPassing clouds.No wind63%29.98 "Hg10 mi
6:53 AM59 °FPassing clouds.No wind64%29.96 "Hg10 mi
5:53 AM57 °FClear.No wind67%29.95 "Hg10 mi
4:53 AM58 °FClear.No wind62%29.93 "Hg10 mi
3:53 AM59 °FClear.No wind60%29.92 "Hg10 mi
2:53 AM59 °FClear.No wind64%29.93 "Hg10 mi
1:53 AM61 °FClear.No wind70%29.94 "Hg10 mi
12:53 AM61 °FClear.3 mph72%29.95 "Hg10 mi
11:53 PM
Apr 23
62 °FClear.3 mph70%29.94 "Hg10 mi
10:53 PM63 °FPassing clouds.3 mph65%29.94 "Hg10 mi
9:53 PM64 °FPassing clouds.6 mph61%29.94 "Hg10 mi
8:53 PM65 °FPassing clouds.3 mph52%29.93 "Hg10 mi
7:53 PM67 °FScattered clouds.3 mph47%29.92 "Hg10 mi
6:53 PM68 °FScattered clouds.6 mph42%29.91 "Hg10 mi
5:53 PM69 °FScattered clouds.9 mph36%29.91 "Hg10 mi
4:53 PM69 °FScattered clouds.6 mph39%29.91 "Hg10 mi
Weather by CustomWeather, © 2014

See weather overview